,,Stat6,,Stat2,,Stat8,,Stat9,,Stat10,,Wind1,,Wind1,
time,status,PA1M_AVG,status,PR1M_SUM,status,RH1M_AVG,status,SR1M_AVG,status,TA1M_AVG,status,W1dAve1m,status,W1sAve1m,
2007-08-28, 00:00:00,VALID,916.768,VALID,0,VALID,100,VALID,-0.135847,VALID,19.3105,VALID,138,VALID,0,
2007-08-28, 00:01:00,VALID,916.752,VALID,0,VALID,100,VALID,-0.118866,VALID,19.3105,VALID,138,VALID,0,
2007-08-28, 00:02:00,VALID,916.761,VALID,0,VALID,100,VALID,-0.152827,VALID,19.3561,VALID,138,VALID,0,
2007-08-28, 00:03:00,VALID,916.765,VALID,0,VALID,100,VALID,-0.118866,VALID,19.3818,VALID,138,VALID,0,
2007-08-28, 00:04:00,VALID,916.766,VALID,0,VALID,100,VALID,-0.169808,VALID,19.3823,VALID,138,VALID,0,
2007-08-28, 00:05:00,VALID,916.763,VALID,0,VALID,100,VALID,-0.169808,VALID,19.3589,VALID,138,VALID,0,
2007-08-28, 00:06:00,VALID,916.77,VALID,0,VALID,100,VALID,-0.135847,VALID,19.3237,VALID,107,VALID,0.190407,
2007-08-28, 00:07:00,VALID,916.767,VALID,0,VALID,100,VALID,-0.152827,VALID,19.1939,VALID,75,VALID,0.937099,
2007-08-28, 00:08:00,VALID,916.772,VALID,0,VALID,100,VALID,-0.101885,VALID,19.1483,VALID,86,VALID,0.923473,
2007-08-28, 00:09:00,VALID,916.768,VALID,0,VALID,100,VALID,-0.135847,VALID,19.1937,VALID,91,VALID,0.7587,
2007-08-28, 00:10:00,VALID,916.78,VALID,0,VALID,100,VALID,-0.118866,VALID,19.2423,VALID,101,VALID,0.559028,
2007-08-28, 00:11:00,VALID,916.808,VALID,0,VALID,100,VALID,-0.135847,VALID,19.2321,VALID,124,VALID,0.563086,
2007-08-28, 00:12:00,VALID,916.798,VALID,0,VALID,100,VALID,-0.169808,VALID,19.2194,VALID,154,VALID,0.703646,
2007-08-28, 00:13:00,VALID,916.798,VALID,0,VALID,100,VALID,-0.118866,VALID,19.2099,VALID,136,VALID,0.91684,
2007-08-28, 00:14:00,VALID,916.808,VALID,0,VALID,100,VALID,-0.169808,VALID,19.1904,VALID,115,VALID,0.60957,
2007-08-28, 00:15:00,VALID,916.81,VALID,0,VALID,100,VALID,-0.0849042,VALID,19.1702,VALID,109,VALID,0.710938,
2007-08-28, 00:16:00,VALID,916.82,VALID,0,VALID,100,VALID,-0.0679233,VALID,19.1408,VALID,104,VALID,0.701126,
2007-08-28, 00:17:00,VALID,916.812,VALID,0,VALID,100,VALID,-0.0509425,VALID,19.0817,VALID,97,VALID,0.618641,
2007-08-28, 00:18:00,VALID,916.798,VALID,0,VALID,100,VALID,-0.0509425,VALID,19.046,VALID,91,VALID,0.759115,
2007-08-28, 00:19:00,VALID,916.758,VALID,0,VALID,100,VALID,-0.0339617,VALID,19.0532,VALID,90,VALID,0.811311,
2007-08-28, 00:20:00,VALID,916.732,VALID,0,VALID,100,VALID,-0.0169808,VALID,19.0462,VALID,90,VALID,0.850229,
2007-08-28, 00:21:00,VALID,916.719,VALID,0,VALID,100,VALID,-0.0339617,VALID,19.0655,VALID,91,VALID,0.695499,
2007-08-28, 00:22:00,VALID,916.693,VALID,0,VALID,100,VALID,0,VALID,19.0715,VALID,92,VALID,0.646723,
2007-08-28, 00:23:00,VALID,916.67,VALID,0,VALID,100,VALID,-0.0339617,VALID,19.0717,VALID,99,VALID,0.697461,
2007-08-28, 00:24:00,VALID,916.665,VALID,0,VALID,100,VALID,-0.0339617,VALID,19.1011,VALID,100,VALID,0.797447,
2007-08-28, 00:25:00,VALID,916.645,VALID,0,VALID,100,VALID,0,VALID,19.1241,VALID,111,VALID,1.10665,
2007-08-28, 00:26:00,VALID,916.641,VALID,0,VALID,100,VALID,0,VALID,19.1114,VALID,112,VALID,0.819315,
2007-08-28, 00:27:00,VALID,916.638,VALID,0,VALID,100,VALID,-0.0339617,VALID,19.1014,VALID,117,VALID,0.977865,
2007-08-28, 00:28:00,VALID,916.642,VALID,0,VALID,100,VALID,-0.0169808,VALID,19.0947,VALID,120,VALID,0.722301,
2007-08-28, 00:29:00,VALID,916.615,VALID,0,VALID,100,VALID,-0.0849042,VALID,19.1019,VALID,120,VALID,0.497582,
2007-08-28, 00:30:00,VALID,916.596,VALID,0,VALID,100,VALID,-0.0679233,VALID,19.0949,VALID,120,VALID,0.448958,
2007-08-28, 00:31:00,VALID,916.564,VALID,0,VALID,100,VALID,-0.0509425,VALID,19.1009,VALID,118,VALID,0.584087,
2007-08-28, 00:32:00,VALID,916.53,VALID,0,VALID,100,VALID,-0.0169808,VALID,19.1438,VALID,118,VALID,0.696429,
2007-08-28, 00:33:00,VALID,916.505,VALID,0,VALID,100,VALID,-0.0339617,VALID,19.1535,VALID,108,VALID,0.81157,
2007-08-28, 00:34:00,VALID,916.476,VALID,0,VALID,100,VALID,-0.0679233,VALID,19.169,VALID,104,VALID,0.721094,
2007-08-28, 00:35:00,VALID,916.472,VALID,0,VALID,100,VALID,-0.0169808,VALID,19.166,VALID,106,VALID,0.93532,
2007-08-28, 00:36:00,VALID,916.462,VALID,0,VALID,100,VALID,-0.0509425,VALID,19.1725,VALID,107,VALID,1.14063,
2007-08-28, 00:37:00,VALID,916.478,VALID,0,VALID,100,VALID,-0.0339617,VALID,19.1855,VALID,111,VALID,1.03888,
2007-08-28, 00:38:00,VALID,916.49,VALID,0,VALID,100,VALID,0,VALID,19.1887,VALID,99,VALID,0.607617,
2007-08-28, 00:39:00,VALID,916.52,VALID,0,VALID,100,VALID,-0.0509425,VALID,19.1723,VALID,86,VALID,0.686012,
2007-08-28, 00:40:00,VALID,916.528,VALID,0,VALID,100,VALID,-0.0339617,VALID,19.1693,VALID,84,VALID,0.792696,
2007-08-28, 00:41:00,VALID,916.537,VALID,0,VALID,100,VALID,-0.0679233,VALID,19.1466,VALID,96,VALID,0.807776,
2007-08-28, 00:42:00,VALID,916.548,VALID,0,VALID,100,VALID,-0.0169808,VALID,19.1371,VALID,104,VALID,0.759993,
2007-08-28, 00:43:00,VALID,916.538,VALID,0,VALID,100,VALID,-0.0169808,VALID,19.1301,VALID,117,VALID,0.541921,
2007-08-28, 00:44:00,VALID,916.551,VALID,0,VALID,100,VALID,-0.0339617,VALID,19.1366,VALID,117,VALID,0.495313,
2007-08-28, 00:45:00,VALID,916.556,VALID,0,VALID,100,VALID,-0.0169808,VALID,19.1498,VALID,117,VALID,0.40843,
2007-08-28, 00:46:00,VALID,916.564,VALID,0,VALID,100,VALID,-0.0169808,VALID,19.173,VALID,117,VALID,0.0351563,
2007-08-28, 00:47:00,VALID,916.582,VALID,0,VALID,100,VALID,0.0169808,VALID,19.1723,VALID,117,VALID,0.00136719,
2007-08-28, 00:48:00,VALID,916.592,VALID,0,VALID,100,VALID,-0.0169808,VALID,19.195,VALID,117,VALID,0,
2007-08-28, 00:49:00,VALID,916.611,VALID,0,VALID,100,VALID,0,VALID,19.2212,VALID,117,VALID,0,
2007-08-28, 00:50:00,VALID,916.63,VALID,0,VALID,100,VALID,0,VALID,19.2501,VALID,117,VALID,0.0769361,
2007-08-28, 00:51:00,VALID,916.63,VALID,0,VALID,100,VALID,0,VALID,19.2631,VALID,119,VALID,0.434956,
2007-08-28, 00:52:00,VALID,916.632,VALID,0,VALID,100,VALID,-0.0169808,VALID,19.2766,VALID,139,VALID,0.479469,
2007-08-28, 00:53:00,VALID,916.621,VALID,0,VALID,100,VALID,0,VALID,19.2731,VALID,138,VALID,0.659801,
2007-08-28, 00:54:00,VALID,916.615,VALID,0,VALID,100,VALID,-0.0339617,VALID,19.2666,VALID,136,VALID,0.696289,
2007-08-28, 00:55:00,VALID,916.605,VALID,0,VALID,100,VALID,-0.0509425,VALID,19.2668,VALID,136,VALID,0.757813,
2007-08-28, 00:56:00,VALID,916.584,VALID,0,VALID,100,VALID,-0.0679233,VALID,19.2673,VALID,120,VALID,0.49858,
2007-08-28, 00:57:00,VALID,916.567,VALID,0,VALID,100,VALID,-0.0169808,VALID,19.2706,VALID,116,VALID,0.207118,
2007-08-28, 00:58:00,VALID,916.547,VALID,0,VALID,100,VALID,-0.0339617,VALID,19.2641,VALID,116,VALID,0.596236,
2007-08-28, 00:59:00,VALID,916.536,VALID,0,VALID,100,VALID,-0.0679233,VALID,19.2411,VALID,117,VALID,0.481357,
2007-08-28, 01:00:00,VALID,916.514,VALID,0,VALID,100,VALID,0,VALID,19.2444,VALID,118,VALID,0.686435,
2007-08-28, 01:01:00,VALID,916.491,VALID,0,VALID,100,VALID,-0.0339617,VALID,19.2446,VALID,120,VALID,0.785156,
2007-08-28, 01:02:00,VALID,916.474,VALID,0,VALID,100,VALID,-0.0339617,VALID,19.2479,VALID,128,VALID,0.901972,
2007-08-28, 01:03:00,VALID,916.452,VALID,0,VALID,100,VALID,0,VALID,19.2676,VALID,129,VALID,0.94186,
2007-08-28, 01:04:00,VALID,916.437,VALID,0,VALID,100,VALID,-0.0509425,VALID,19.2676,VALID,134,VALID,0.942361,
2007-08-28, 01:05:00,VALID,916.412,VALID,0,VALID,100,VALID,-0.0339617,VALID,19.2905,VALID,136,VALID,0.731445,
2007-08-28, 01:06:00,VALID,916.394,VALID,0,VALID,100,VALID,-0.0509425,VALID,19.2835,VALID,134,VALID,0.783854,
2007-08-28, 01:07:00,VALID,916.388,VALID,0,VALID,100,VALID,-0.0679233,VALID,19.2763,VALID,124,VALID,0.637429,
2007-08-28, 01:08:00,VALID,916.388,VALID,0,VALID,100,VALID,-0.0339617,VALID,19.2873,VALID,119,VALID,0.366806,
2007-08-28, 01:09:00,VALID,916.405,VALID,0,VALID,100,VALID,-0.0169808,VALID,19.2803,VALID,119,VALID,0.364879,
2007-08-28, 01:10:00,VALID,916.403,VALID,0,VALID,100,VALID,-0.0169808,VALID,19.2599,VALID,119,VALID,0.248935,
2007-08-28, 01:11:00,VALID,916.415,VALID,0,VALID,100,VALID,0,VALID,19.2569,VALID,119,VALID,0.215701,
2007-08-28, 01:12:00,VALID,916.423,VALID,0,VALID,100,VALID,-0.0169808,VALID,19.2638,VALID,119,VALID,0.443266,
2007-08-28, 01:13:00,VALID,916.409,VALID,0,VALID,100,VALID,-0.0169808,VALID,19.2606,VALID,119,VALID,0.608073,
2007-08-28, 01:14:00,VALID,916.41,VALID,0,VALID,100,VALID,-0.0339617,VALID,19.2509,VALID,119,VALID,0.683789,
2007-08-28, 01:15:00,VALID,916.404,VALID,0,VALID,100,VALID,-0.0339617,VALID,19.2543,VALID,121,VALID,0.931362,
2007-08-28, 01:16:00,VALID,916.401,VALID,0,VALID,100,VALID,0,VALID,19.2571,VALID,130,VALID,0.915153,
2007-08-28, 01:17:00,VALID,916.402,VALID,0,VALID,100,VALID,0.0169808,VALID,19.2536,VALID,124,VALID,0.88157,
2007-08-28, 01:18:00,VALID,916.389,VALID,0,VALID,100,VALID,-0.0169808,VALID,19.2601,VALID,124,VALID,0.466264,
2007-08-28, 01:19:00,VALID,916.384,VALID,0,VALID,100,VALID,-0.0339617,VALID,19.2471,VALID,124,VALID,0.375186,
2007-08-28, 01:20:00,VALID,916.358,VALID,0,VALID,100,VALID,-0.0339617,VALID,19.2449,VALID,124,VALID,0.387355,
2007-08-28, 01:21:00,VALID,916.337,VALID,0,VALID,100,VALID,-0.0169808,VALID,19.2219,VALID,129,VALID,0.525856,
2007-08-28, 01:22:00,VALID,916.305,VALID,0,VALID,100,VALID,0,VALID,19.2217,VALID,139,VALID,0.558117,
2007-08-28, 01:23:00,VALID,916.279,VALID,0,VALID,100,VALID,-0.0169808,VALID,19.2214,VALID,163,VALID,0.74349,
2007-08-28, 01:24:00,VALID,916.263,VALID,0,VALID,100,VALID,-0.0169808,VALID,19.2249,VALID,158,VALID,0.596591,
2007-08-28, 01:25:00,VALID,916.241,VALID,0,VALID,100,VALID,0,VALID,19.2214,VALID,155,VALID,0.643102,
2007-08-28, 01:26:00,VALID,916.227,VALID,0,VALID,100,VALID,0,VALID,19.2444,VALID,160,VALID,0.849144,
2007-08-28, 01:27:00,VALID,916.209,VALID,0,VALID,100,VALID,-0.0169808,VALID,19.2511,VALID,163,VALID,0.994606,
2007-08-28, 01:28:00,VALID,916.198,VALID,0,VALID,100,VALID,0,VALID,19.2536,VALID,155,VALID,1.10011,
2007-08-28, 01:29:00,VALID,916.175,VALID,0,VALID,100,VALID,-0.0169808,VALID,19.2601,VALID,159,VALID,1.17315,
2007-08-28, 01:30:00,VALID,916.177,VALID,0,VALID,100,VALID,-0.0169808,VALID,19.2701,VALID,159,VALID,0.629092,
2007-08-28, 01:31:00,VALID,916.177,VALID,0,VALID,100,VALID,0,VALID,19.2663,VALID,151,VALID,1.02562,
2007-08-28, 01:32:00,VALID,916.156,VALID,0,VALID,100,VALID,-0.0679233,VALID,19.2868,VALID,140,VALID,1.0207,
2007-08-28, 01:33:00,VALID,916.167,VALID,0,VALID,100,VALID,-0.0339617,VALID,19.2935,VALID,128,VALID,1.03016,
2007-08-28, 01:34:00,VALID,916.16,VALID,0,VALID,100,VALID,0,VALID,19.2761,VALID,128,VALID,1.06995,
2007-08-28, 01:35:00,VALID,916.14,VALID,0,VALID,100,VALID,-0.0339617,VALID,19.2898,VALID,147,VALID,0.685501,
2007-08-28, 01:36:00,VALID,916.132,VALID,0,VALID,100,VALID,0,VALID,19.2698,VALID,151,VALID,0.754954,
2007-08-28, 01:37:00,VALID,916.136,VALID,0,VALID,100,VALID,0,VALID,19.2569,VALID,123,VALID,0.728659,
2007-08-28, 01:38:00,VALID,916.137,VALID,0,VALID,100,VALID,-0.0509425,VALID,19.2441,VALID,116,VALID,0.779154,
2007-08-28, 01:39:00,VALID,916.132,VALID,0,VALID,100,VALID,-0.0169808,VALID,19.2247,VALID,118,VALID,0.734028,
2007-08-28, 01:40:00,VALID,916.141,VALID,0,VALID,100,VALID,-0.0339617,VALID,19.2149,VALID,120,VALID,0.688072,
2007-08-28, 01:41:00,VALID,916.115,VALID,0,VALID,100,VALID,-0.0169808,VALID,19.1985,VALID,157,VALID,0.9375,
2007-08-28, 01:42:00,VALID,916.106,VALID,0,VALID,100,VALID,0,VALID,19.2052,VALID,166,VALID,0.952939,
2007-08-28, 01:43:00,VALID,916.075,VALID,0,VALID,100,VALID,-0.0169808,VALID,19.2057,VALID,163,VALID,0.753125,
2007-08-28, 01:44:00,VALID,916.054,VALID,0,VALID,100,VALID,0,VALID,19.1922,VALID,151,VALID,0.53726,
2007-08-28, 01:45:00,VALID,916.017,VALID,0,VALID,100,VALID,-0.0849042,VALID,19.1827,VALID,133,VALID,0.60434,
2007-08-28, 01:46:00,VALID,915.981,VALID,0,VALID,100,VALID,-0.0679233,VALID,19.1698,VALID,123,VALID,0.798118,
2007-08-28, 01:47:00,VALID,915.964,VALID,0,VALID,100,VALID,-0.101885,VALID,19.17,VALID,140,VALID,0.699119,
2007-08-28, 01:48:00,VALID,915.936,VALID,0,VALID,100,VALID,-0.0509425,VALID,19.1702,VALID,144,VALID,0.578125,
2007-08-28, 01:49:00,VALID,915.923,VALID,0,VALID,100,VALID,-0.0849042,VALID,19.1603,VALID,142,VALID,0.121394,
2007-08-28, 01:50:00,VALID,915.92,VALID,0,VALID,100,VALID,-0.0849042,VALID,19.1668,VALID,133,VALID,0.835938,
2007-08-28, 01:51:00,VALID,915.928,VALID,0,VALID,100,VALID,-0.0509425,VALID,19.1468,VALID,130,VALID,0.556362,
2007-08-28, 01:52:00,VALID,915.942,VALID,0,VALID,100,VALID,-0.0679233,VALID,19.1241,VALID,126,VALID,0.628534,
2007-08-28, 01:53:00,VALID,915.967,VALID,0,VALID,100,VALID,-0.0849042,VALID,19.1144,VALID,145,VALID,0.897347,
2007-08-28, 01:54:00,VALID,915.968,VALID,0,VALID,100,VALID,-0.0849042,VALID,19.1216,VALID,155,VALID,0.76835,
2007-08-28, 01:55:00,VALID,915.981,VALID,0,VALID,100,VALID,-0.0849042,VALID,19.1116,VALID,158,VALID,0.383956,
2007-08-28, 01:56:00,VALID,915.965,VALID,0,VALID,100,VALID,-0.0849042,VALID,19.1116,VALID,150,VALID,0.347202,
2007-08-28, 01:57:00,VALID,915.94,VALID,0,VALID,100,VALID,-0.0679233,VALID,19.0852,VALID,147,VALID,0.718387,
2007-08-28, 01:58:00,VALID,915.915,VALID,0,VALID,100,VALID,-0.0339617,VALID,19.0789,VALID,128,VALID,0.685547,
2007-08-28, 01:59:00,VALID,915.894,VALID,0,VALID,100,VALID,-0.0849042,VALID,19.0692,VALID,119,VALID,0.766959,
2007-08-28, 02:00:00,VALID,915.859,VALID,0,VALID,100,VALID,-0.0679233,VALID,19.0659,VALID,122,VALID,0.745908,
2007-08-28, 02:01:00,VALID,915.836,VALID,0,VALID,100,VALID,-0.0339617,VALID,19.056,VALID,123,VALID,0.500744,
2007-08-28, 02:02:00,VALID,915.799,VALID,0,VALID,100,VALID,-0.0679233,VALID,19.0757,VALID,132,VALID,1.43845,
2007-08-28, 02:03:00,VALID,915.784,VALID,0,VALID,100,VALID,-0.0849042,VALID,19.0921,VALID,140,VALID,1.1092,
2007-08-28, 02:04:00,VALID,915.767,VALID,0,VALID,100,VALID,-0.101885,VALID,19.1116,VALID,137,VALID,1.00664,
2007-08-28, 02:05:00,VALID,915.754,VALID,0,VALID,100,VALID,-0.118866,VALID,19.1118,VALID,138,VALID,0.883929,
2007-08-28, 02:06:00,VALID,915.746,VALID,0,VALID,100,VALID,-0.0679233,VALID,19.1051,VALID,137,VALID,1.21112,
2007-08-28, 02:07:00,VALID,915.751,VALID,0,VALID,100,VALID,-0.101885,VALID,19.0854,VALID,132,VALID,1.18902,
2007-08-28, 02:08:00,VALID,915.747,VALID,0,VALID,100,VALID,-0.0339617,VALID,19.0754,VALID,137,VALID,1.25036,
2007-08-28, 02:09:00,VALID,915.753,VALID,0,VALID,100,VALID,-0.0679233,VALID,19.0894,VALID,148,VALID,1.3661,
2007-08-28, 02:10:00,VALID,915.751,VALID,0,VALID,100,VALID,-0.0849042,VALID,19.0857,VALID,146,VALID,1.22802,
2007-08-28, 02:11:00,VALID,915.758,VALID,0,VALID,100,VALID,-0.101885,VALID,19.0954,VALID,132,VALID,1.31851,
2007-08-28, 02:12:00,VALID,915.755,VALID,0,VALID,100,VALID,-0.0509425,VALID,19.0889,VALID,126,VALID,1.18164,
2007-08-28, 02:13:00,VALID,915.733,VALID,0,VALID,100,VALID,-0.0849042,VALID,19.0951,VALID,137,VALID,1.61701,
2007-08-28, 02:14:00,VALID,915.717,VALID,0,VALID,100,VALID,-0.101885,VALID,19.1051,VALID,132,VALID,1.39453,
2007-08-28, 02:15:00,VALID,915.708,VALID,0,VALID,100,VALID,0,VALID,19.1236,VALID,124,VALID,1.19959,
2007-08-28, 02:16:00,VALID,915.684,VALID,0,VALID,100,VALID,0.0169808,VALID,19.1201,VALID,142,VALID,1.44238,
2007-08-28, 02:17:00,VALID,915.671,VALID,0,VALID,100,VALID,0,VALID,19.1196,VALID,159,VALID,1.74981,
2007-08-28, 02:18:00,VALID,915.651,VALID,0,VALID,100,VALID,0.0169808,VALID,19.1199,VALID,154,VALID,1.67533,
2007-08-28, 02:19:00,VALID,915.635,VALID,0,VALID,100,VALID,-0.0169808,VALID,19.1162,VALID,155,VALID,1.64844,
2007-08-28, 02:20:00,VALID,915.606,VALID,0,VALID,100,VALID,0.0169808,VALID,19.1261,VALID,155,VALID,1.254,
2007-08-28, 02:21:00,VALID,915.593,VALID,0,VALID,100,VALID,0.0849042,VALID,19.1261,VALID,163,VALID,1.23365,
2007-08-28, 02:22:00,VALID,915.579,VALID,0,VALID,100,VALID,0.0169808,VALID,19.1296,VALID,152,VALID,1.13802,
2007-08-28, 02:23:00,VALID,915.577,VALID,0,VALID,100,VALID,0.0169808,VALID,19.1034,VALID,163,VALID,0.883384,
2007-08-28, 02:24:00,VALID,915.571,VALID,0,VALID,100,VALID,0.0169808,VALID,19.09,VALID,154,VALID,1.21913,
2007-08-28, 02:25:00,VALID,915.573,VALID,0,VALID,100,VALID,0.0339617,VALID,19.077,VALID,158,VALID,1.3375,
2007-08-28, 02:26:00,VALID,915.578,VALID,0,VALID,100,VALID,0.0169808,VALID,19.0705,VALID,173,VALID,0.838986,
2007-08-28, 02:27:00,VALID,915.576,VALID,0,VALID,100,VALID,0.0509425,VALID,19.061,VALID,168,VALID,0.637536,
2007-08-28, 02:28:00,VALID,915.592,VALID,0,VALID,100,VALID,0.0679233,VALID,19.0608,VALID,188,VALID,0.713796,
2007-08-28, 02:29:00,VALID,915.596,VALID,0,VALID,100,VALID,0.0679233,VALID,19.0381,VALID,200,VALID,0.514129,
2007-08-28, 02:30:00,VALID,915.609,VALID,0,VALID,100,VALID,-0.0339617,VALID,19.0293,VALID,201,VALID,0.724564,
2007-08-28, 02:31:00,VALID,915.616,VALID,0,VALID,100,VALID,-0.0169808,VALID,19.04,VALID,215,VALID,0.57867,
2007-08-28, 02:32:00,VALID,915.61,VALID,0,VALID,100,VALID,-0.0509425,VALID,19.0432,VALID,203,VALID,0.424055,
2007-08-28, 02:33:00,VALID,915.602,VALID,0,VALID,100,VALID,-0.0509425,VALID,19.0465,VALID,200,VALID,0.618096,
2007-08-28, 02:34:00,VALID,915.586,VALID,0,VALID,100,VALID,-0.101885,VALID,19.0595,VALID,196,VALID,0.550959,
2007-08-28, 02:35:00,VALID,915.566,VALID,0,VALID,100,VALID,-0.0509425,VALID,19.0727,VALID,194,VALID,0.381722,
2007-08-28, 02:36:00,VALID,915.549,VALID,0,VALID,100,VALID,-0.0509425,VALID,19.0652,VALID,179,VALID,0.397879,
2007-08-28, 02:37:00,VALID,915.551,VALID,0,VALID,100,VALID,-0.0679233,VALID,19.0824,VALID,153,VALID,0.554688,
2007-08-28, 02:38:00,VALID,915.542,VALID,0,VALID,100,VALID,-0.0339617,VALID,19.0687,VALID,151,VALID,0.648065,
2007-08-28, 02:39:00,VALID,915.521,VALID,0,VALID,100,VALID,-0.0679233,VALID,19.0819,VALID,164,VALID,0.555208,
2007-08-28, 02:40:00,VALID,915.534,VALID,0,VALID,100,VALID,-0.0679233,VALID,19.0717,VALID,170,VALID,0.494391,
2007-08-28, 02:41:00,VALID,915.523,VALID,0,VALID,100,VALID,-0.0509425,VALID,19.0754,VALID,170,VALID,0.467076,
2007-08-28, 02:42:00,VALID,915.519,VALID,0,VALID,100,VALID,-0.0509425,VALID,19.0789,VALID,174,VALID,0.506479,
2007-08-28, 02:43:00,VALID,915.514,VALID,0,VALID,100,VALID,-0.0679233,VALID,19.0792,VALID,180,VALID,0.66061,
2007-08-28, 02:44:00,VALID,915.512,VALID,0,VALID,100,VALID,-0.0679233,VALID,19.0954,VALID,198,VALID,0.620999,
2007-08-28, 02:45:00,VALID,915.512,VALID,0,VALID,100,VALID,-0.0169808,VALID,19.0944,VALID,185,VALID,0.375363,
2007-08-28, 02:46:00,VALID,915.512,VALID,0,VALID,100,VALID,0,VALID,19.1111,VALID,178,VALID,0.157813,
2007-08-28, 02:47:00,VALID,915.514,VALID,0,VALID,100,VALID,0.0339617,VALID,19.1139,VALID,149,VALID,0.323401,
2007-08-28, 02:48:00,VALID,915.51,VALID,0,VALID,100,VALID,0.0169808,VALID,19.1144,VALID,109,VALID,0.703488,
2007-08-28, 02:49:00,VALID,915.524,VALID,0,VALID,100,VALID,0,VALID,19.0914,VALID,125,VALID,1.16679,
2007-08-28, 02:50:00,VALID,915.508,VALID,0,VALID,100,VALID,0,VALID,19.0752,VALID,129,VALID,1.34223,
2007-08-28, 02:51:00,VALID,915.496,VALID,0,VALID,100,VALID,0,VALID,19.059,VALID,126,VALID,1.1962,
2007-08-28, 02:52:00,VALID,915.476,VALID,0,VALID,100,VALID,0,VALID,19.0298,VALID,123,VALID,1.51024,
2007-08-28, 02:53:00,VALID,915.46,VALID,0,VALID,100,VALID,-0.0169808,VALID,19.0305,VALID,140,VALID,1.15163,
2007-08-28, 02:54:00,VALID,915.447,VALID,0,VALID,100,VALID,-0.0169808,VALID,19.0268,VALID,99,VALID,0.959517,
2007-08-28, 02:55:00,VALID,915.44,VALID,0,VALID,100,VALID,0,VALID,19.0103,VALID,137,VALID,1.0952,
2007-08-28, 02:56:00,VALID,915.442,VALID,0,VALID,100,VALID,0,VALID,19.0106,VALID,141,VALID,1.20094,
2007-08-28, 02:57:00,VALID,915.441,VALID,0,VALID,100,VALID,-0.0169808,VALID,19.0078,VALID,146,VALID,1.06938,
2007-08-28, 02:58:00,VALID,915.452,VALID,0,VALID,100,VALID,-0.0169808,VALID,18.9943,VALID,137,VALID,0.928013,
2007-08-28, 02:59:00,VALID,915.464,VALID,0,VALID,100,VALID,0,VALID,18.9811,VALID,158,VALID,0.732422,
2007-08-28, 03:00:00,VALID,915.464,VALID,0,VALID,100,VALID,-0.0169808,VALID,18.9811,VALID,150,VALID,1.08129,
2007-08-28, 03:01:00,VALID,915.474,VALID,0,VALID,100,VALID,-0.0339617,VALID,18.9719,VALID,139,VALID,1.34566,
2007-08-28, 03:02:00,VALID,915.499,VALID,0,VALID,100,VALID,-0.0339617,VALID,18.9392,VALID,144,VALID,1.62409,
2007-08-28, 03:03:00,VALID,915.507,VALID,0,VALID,100,VALID,-0.0169808,VALID,18.9262,VALID,151,VALID,0.813772,
2007-08-28, 03:04:00,VALID,915.525,VALID,0,VALID,100,VALID,0.0169808,VALID,18.9225,VALID,143,VALID,1.12821,
2007-08-28, 03:05:00,VALID,915.537,VALID,0,VALID,100,VALID,0,VALID,18.9167,VALID,150,VALID,1.28824,
2007-08-28, 03:06:00,VALID,915.54,VALID,0,VALID,100,VALID,0,VALID,18.8968,VALID,128,VALID,0.758557,
2007-08-28, 03:07:00,VALID,915.536,VALID,0,VALID,100,VALID,0,VALID,18.9003,VALID,141,VALID,1.77251,
2007-08-28, 03:08:00,VALID,915.533,VALID,0,VALID,100,VALID,0,VALID,18.8903,VALID,149,VALID,1.413,
2007-08-28, 03:09:00,VALID,915.515,VALID,0,VALID,100,VALID,0,VALID,18.8868,VALID,144,VALID,0.857422,
2007-08-28, 03:10:00,VALID,915.498,VALID,0,VALID,100,VALID,0.0169808,VALID,18.9033,VALID,132,VALID,1.40752,
2007-08-28, 03:11:00,VALID,915.487,VALID,0,VALID,100,VALID,0,VALID,18.8868,VALID,135,VALID,1.57578,
2007-08-28, 03:12:00,VALID,915.472,VALID,0,VALID,100,VALID,0,VALID,18.8741,VALID,135,VALID,1.60633,
2007-08-28, 03:13:00,VALID,915.47,VALID,0,VALID,100,VALID,0,VALID,18.8579,VALID,139,VALID,1.52562,
2007-08-28, 03:14:00,VALID,915.441,VALID,0,VALID,100,VALID,0,VALID,18.8611,VALID,141,VALID,1.6804,
2007-08-28, 03:15:00,VALID,915.434,VALID,0,VALID,100,VALID,0,VALID,18.8581,VALID,161,VALID,1.71928,
2007-08-28, 03:16:00,VALID,915.431,VALID,0,VALID,100,VALID,0.0339617,VALID,18.8349,VALID,153,VALID,1.36797,
2007-08-28, 03:17:00,VALID,915.427,VALID,0,VALID,100,VALID,0,VALID,18.825,VALID,140,VALID,1.91576,
2007-08-28, 03:18:00,VALID,915.425,VALID,0,VALID,100,VALID,-0.0169808,VALID,18.8157,VALID,137,VALID,1.52289,
2007-08-28, 03:19:00,VALID,915.43,VALID,0,VALID,100,VALID,0.0339617,VALID,18.8025,VALID,141,VALID,1.39963,
2007-08-28, 03:20:00,VALID,915.436,VALID,0,VALID,100,VALID,0.0169808,VALID,18.7763,VALID,131,VALID,1.32599,
2007-08-28, 03:21:00,VALID,915.439,VALID,0,VALID,100,VALID,0,VALID,18.7733,VALID,129,VALID,1.2502,
2007-08-28, 03:22:00,VALID,915.43,VALID,0,VALID,100,VALID,0,VALID,18.7538,VALID,131,VALID,1.3309,
2007-08-28, 03:23:00,VALID,915.424,VALID,0,VALID,100,VALID,-0.0169808,VALID,18.7346,VALID,142,VALID,1.07213,
2007-08-28, 03:24:00,VALID,915.408,VALID,0,VALID,100,VALID,0,VALID,18.7214,VALID,129,VALID,1.14323,
2007-08-28, 03:25:00,VALID,915.385,VALID,0,VALID,100,VALID,0,VALID,18.7054,VALID,123,VALID,1.29479,
2007-08-28, 03:26:00,VALID,915.367,VALID,0,VALID,100,VALID,0,VALID,18.702,VALID,133,VALID,1.19548,
2007-08-28, 03:27:00,VALID,915.345,VALID,0,VALID,100,VALID,0.0169808,VALID,18.689,VALID,121,VALID,1.10844,
2007-08-28, 03:28:00,VALID,915.322,VALID,0,VALID,100,VALID,0.0169808,VALID,18.6792,VALID,105,VALID,0.90767,
2007-08-28, 03:29:00,VALID,915.326,VALID,0,VALID,100,VALID,0.0169808,VALID,18.6795,VALID,97,VALID,0.988467,
2007-08-28, 03:30:00,VALID,915.316,VALID,0,VALID,100,VALID,-0.0169808,VALID,18.6698,VALID,77,VALID,0.68022,
2007-08-28, 03:31:00,VALID,915.319,VALID,0,VALID,100,VALID,0,VALID,18.6401,VALID,104,VALID,1.07236,
2007-08-28, 03:32:00,VALID,915.323,VALID,0,VALID,100,VALID,0.0339617,VALID,18.6278,VALID,88,VALID,0.937686,
2007-08-28, 03:33:00,VALID,915.334,VALID,0,VALID,100,VALID,0,VALID,18.5884,VALID,108,VALID,0.546113,
2007-08-28, 03:34:00,VALID,915.339,VALID,0,VALID,100,VALID,0.0339617,VALID,18.5722,VALID,129,VALID,0.67691,
2007-08-28, 03:35:00,VALID,915.343,VALID,0,VALID,100,VALID,0,VALID,18.556,VALID,121,VALID,0.56233,
2007-08-28, 03:36:00,VALID,915.347,VALID,0,VALID,100,VALID,-0.0169808,VALID,18.5465,VALID,129,VALID,0.730664,
2007-08-28, 03:37:00,VALID,915.336,VALID,0,VALID,100,VALID,-0.0339617,VALID,18.5333,VALID,121,VALID,0.593378,
2007-08-28, 03:38:00,VALID,915.3,VALID,0,VALID,100,VALID,0,VALID,18.5076,VALID,120,VALID,0.284307,
2007-08-28, 03:39:00,VALID,915.311,VALID,0,VALID,100,VALID,0,VALID,18.5009,VALID,120,VALID,0.102679,
2007-08-28, 03:40:01,VALID,915.309,VALID,0,VALID,100,VALID,0,VALID,18.4944,VALID,125,VALID,0.263263,
2007-08-28, 03:41:00,VALID,915.307,VALID,0,VALID,100,VALID,0,VALID,18.5013,VALID,127,VALID,0.0367006,
2007-08-28, 03:42:01,VALID,915.305,VALID,0,VALID,100,VALID,0.0169808,VALID,18.5011,VALID,127,VALID,0,